Flag for South Africa Weather past 2 weeks in Port Elizabeth, South Africa

Now
61 °F

Sunny.


Feels Like: 61 °F
Forecast: 55 / 72 °F
Wind: 9 mph from North

Location: Port Elizabeth Airport

Current Time: Aug 31, 2014 at 11:20:08 AM

Latest Report: Aug 31, 2014 at 10:00 AM


Visibility: 10 mi

Pressure: 30.48 "Hg

Humidity: 59%

Dew point: 46 °F

Location of Port ElizabethLocation

Historic Weather in Port Elizabeth — Graph

°F

Port Elizabeth temperature yesterday

Maximum temperature yesterday: 63 °F (at 1:00 PM)
Minimum temperature yesterday: 45 °F (at 8:00 PM)
Average temperature yesterday: 56 °F

Past Weeks' High & Low Weather Summary

 TemperatureHumidityPressure
High84 °F (Aug 18, 11:00 AM)94% (Aug 17, 2:00 AM)30.54 "Hg (Aug 17, 2:00 AM)
Low43 °F (Aug 31, 12:00 AM)31% (Aug 18, 11:00 AM)29.74 "Hg (Aug 27, 5:01 AM)
Average59 °F72%30.06 "Hg
* Reported Aug 16 10:00 AM — Aug 31 10:00 AM, Port Elizabeth, Weather by CustomWeather, © 2014

Note: Actual official high and low records may vary slightly from our data, if they occured in-between our weather recording intervals... More about our weather records

Advertising

Port Elizabeth weather history for previous 24 hours

 ConditionsComfort  
Time TempWeatherWind HumidityBarometerVisibility
10:00 AM
Aug 31
61 °FSunny.9 mph59%30.48 "Hg10 mi
9:00 AM61 °FSunny.8 mph59%30.48 "Hg10 mi
8:00 AM57 °FPassing clouds.3 mph67%30.48 "HgN/A
7:00 AM54 °FPartly sunny.2 mph77%30.48 "HgN/A
6:00 AM54 °FPartly sunny.1 mph77%30.48 "HgN/A
5:00 AM54 °FPassing clouds.2 mph77%30.48 "HgN/A
4:00 AM52 °FPassing clouds.3 mph82%30.48 "HgN/A
3:00 AM52 °FPassing clouds.5 mph77%30.48 "HgN/A
2:00 AM50 °FPassing clouds.2 mph82%30.51 "HgN/A
1:00 AM45 °FPassing clouds.5 mph81%30.51 "HgN/A
12:00 AM43 °FClear.5 mph87%30.51 "Hg10 mi
9:00 PM
Aug 30
45 °FClear.3 mph81%30.54 "Hg5 mi
8:00 PM45 °FClear.3 mph81%30.54 "Hg10 mi
7:00 PM52 °FClear.2 mph72%30.51 "Hg10 mi
6:00 PM57 °FPassing clouds.3 mph59%30.51 "HgN/A
5:00 PM59 °FPassing clouds.8 mph55%30.51 "HgN/A
4:00 PM61 °FPassing clouds.9 mph52%30.51 "HgN/A
3:00 PM63 °FPassing clouds.9 mph49%30.51 "HgN/A
2:00 PM63 °FPassing clouds.9 mph49%30.51 "HgN/A
1:00 PM63 °FScattered clouds.8 mph49%30.51 "HgN/A
12:00 PM59 °FScattered clouds.10 mph55%30.54 "HgN/A
11:00 AM61 °FPassing clouds.9 mph52%30.54 "HgN/A
Weather by CustomWeather, © 2014

See weather overviewHow to use our weather pages